owner,sensor,date,latitude,longitude,vertical_datum,direction_of_sea_water_velocity,sea_water_speed,upward_sea_water_velocity,qcFlag 
ADCP,ioos:station:wmo:42890:1,2013-03-01T00:09:00Z,27.6250,-90.4410,15.2,186.0,20.4,-9999.0,'11111222,11111222,99999999' 
ADCP,ioos:station:wmo:42890:1,2013-03-01T00:29:00Z,27.6250,-90.4410,15.2,191.0,19.7,-9999.0,'11111222,11111222,99999999' 
ADCP,ioos:station:wmo:42890:1,2013-03-01T00:49:00Z,27.6250,-90.4410,15.2,183.0,21.3,-9999.0,'11111222,11111222,99999999' 
ADCP,ioos:station:wmo:42890:1,2013-03-01T01:09:00Z,27.6250,-90.4410,15.2,188.0,21.4,-9999.0,'11111222,11111222,99999999' 
ADCP,ioos:station:wmo:42890:1,2013-03-01T01:29:00Z,27.6250,-90.4410,15.2,196.0,22.0,-9999.0,'11111222,11111222,99999999' 
ADCP,ioos:station:wmo:42890:1,2013-03-01T01:49:00Z,27.6250,-90.4410,15.2,205.0,23.7,-9999.0,'11111222,11111222,99999999' 
ADCP,ioos:station:wmo:42890:1,2013-03-01T02:09:00Z,27.6250,-90.4410,15.2,196.0,14.3,-9999.0,'11111222,11111222,99999999' 
ADCP,ioos:station:wmo:42890:1,2013-03-01T02:29:00Z,27.6250,-90.4410,15.2,186.0,13.4,-9999.0,'11111222,11111222,99999999' 
ADCP,ioos:station:wmo:42890:1,2013-03-01T02:49:00Z,27.6250,-90.4410,15.2,189.0,12.1,-9999.0,'11111222,11111222,99999999' 
ADCP,ioos:station:wmo:42890:1,2013-03-01T03:09:00Z,27.6250,-90.4410,15.2,177.0,11.2,-9999.0,'11111222,11111222,99999999' 
ADCP,ioos:station:wmo:42890:1,2013-03-01T03:29:00Z,27.6250,-90.4410,15.2,174.0,12.4,-9999.0,'11111222,11111222,99999999' 
ADCP,ioos:station:wmo:42890:1,2013-03-01T03:49:00Z,27.6250,-90.4410,15.2,187.0,12.3,-9999.0,'11111222,11111222,99999999' 
ADCP,ioos:station:wmo:42890:1,2013-03-01T04:09:00Z,27.6250,-90.4410,15.2,193.0,12.9,-9999.0,'11111222,11111222,99999999' 
ADCP,ioos:station:wmo:42890:1,2013-03-01T04:29:00Z,27.6250,-90.4410,15.2,214.0,19.7,-9999.0,'11111222,11111222,99999999' 
ADCP,ioos:station:wmo:42890:1,2013-03-01T04:49:00Z,27.6250,-90.4410,15.2,191.0,13.4,-9999.0,'11111222,11111222,99999999' 
ADCP,ioos:station:wmo:42890:1,2013-03-01T05:09:00Z,27.6250,-90.4410,15.2,167.0,17.1,-9999.0,'11111222,11111222,99999999' 
ADCP,ioos:station:wmo:42890:1,2013-03-01T05:29:00Z,27.6250,-90.4410,15.2,155.0,16.2,-9999.0,'11111222,11111222,99999999' 
ADCP,ioos:station:wmo:42890:1,2013-03-01T05:49:00Z,27.6250,-90.4410,15.2,195.0,13.0,-9999.0,'11111222,11111222,99999999' 
ADCP,ioos:station:wmo:42890:1,2013-03-01T06:09:00Z,27.6250,-90.4410,15.2,211.0,15.0,-9999.0,'11111222,11111222,99999999' 
ADCP,ioos:station:wmo:42890:1,2013-03-01T06:29:00Z,27.6250,-90.4410,15.2,189.0,12.1,-9999.0,'11111222,11111222,99999999' 
ADCP,ioos:station:wmo:42890:1,2013-03-01T06:49:00Z,27.6250,-90.4410,15.2,206.0,11.0,-9999.0,'11111222,11111222,99999999' 
ADCP,ioos:station:wmo:42890:1,2013-03-01T07:09:00Z,27.6250,-90.4410,15.2,210.0,13.3,-9999.0,'11111222,11111222,99999999' 
ADCP,ioos:station:wmo:42890:1,2013-03-01T07:29:00Z,27.6250,-90.4410,15.2,197.0,12.0,-9999.0,'11111222,11111222,99999999' 
ADCP,ioos:station:wmo:42890:1,2013-03-01T07:49:00Z,27.6250,-90.4410,15.2,217.0,19.7,-9999.0,'11111222,11111222,99999999' 
ADCP,ioos:station:wmo:42890:1,2013-03-01T08:09:00Z,27.6250,-90.4410,15.2,177.0,13.3,-9999.0,'11111222,11111222,99999999' 
ADCP,ioos:station:wmo:42890:1,2013-03-01T08:29:00Z,27.6250,-90.4410,15.2,172.0,11.2,-9999.0,'11111222,11111222,99999999' 
ADCP,ioos:station:wmo:42890:1,2013-03-01T08:49:00Z,27.6250,-90.4410,15.2,188.0,14.3,-9999.0,'11111222,11111222,99999999' 
ADCP,ioos:station:wmo:42890:1,2013-03-01T09:09:00Z,27.6250,-90.4410,15.2,175.0,13.8,-9999.0,'11111222,11111222,99999999' 
ADCP,ioos:station:wmo:42890:1,2013-03-01T09:29:00Z,27.6250,-90.4410,15.2,186.0,15.3,-9999.0,'11111222,11111222,99999999' 
ADCP,ioos:station:wmo:42890:1,2013-03-01T09:49:00Z,27.6250,-90.4410,15.2,150.0,17.3,-9999.0,'11111222,11111222,99999999' 
ADCP,ioos:station:wmo:42890:1,2013-03-01T10:09:00Z,27.6250,-90.4410,15.2,166.0,21.6,-9999.0,'11111222,11111222,99999999' 
ADCP,ioos:station:wmo:42890:1,2013-03-01T10:29:00Z,27.6250,-90.4410,15.2,144.0,19.6,-9999.0,'11111222,11111222,99999999' 
ADCP,ioos:station:wmo:42890:1,2013-03-01T10:49:00Z,27.6250,-90.4410,15.2,161.0,14.6,-9999.0,'11111222,11111222,99999999' 
ADCP,ioos:station:wmo:42890:1,2013-03-01T11:09:00Z,27.6250,-90.4410,15.2,150.0,17.1,-9999.0,'11111222,11111222,99999999' 
ADCP,ioos:station:wmo:42890:1,2013-03-01T11:29:00Z,27.6250,-90.4410,15.2,159.0,17.6,-9999.0,'11111222,11111222,99999999' 
ADCP,ioos:station:wmo:42890:1,2013-03-01T11:49:00Z,27.6250,-90.4410,15.2,152.0,23.4,-9999.0,'11111222,11111222,99999999' 
ADCP,ioos:station:wmo:42890:1,2013-03-01T12:09:00Z,27.6250,-90.4410,15.2,150.0,19.9,-9999.0,'11111222,11111222,99999999' 
ADCP,ioos:station:wmo:42890:1,2013-03-01T12:29:00Z,27.6250,-90.4410,15.2,144.0,23.6,-9999.0,'11111222,11111222,99999999' 
ADCP,ioos:station:wmo:42890:1,2013-03-01T12:49:00Z,27.6250,-90.4410,15.2,159.0,21.2,-9999.0,'11111222,11111222,99999999' 
ADCP,ioos:station:wmo:42890:1,2013-03-01T13:09:00Z,27.6250,-90.4410,15.2,158.0,21.8,-9999.0,'11111222,11111222,99999999' 
ADCP,ioos:station:wmo:42890:1,2013-03-01T13:29:00Z,27.6250,-90.4410,15.2,146.0,21.8,-9999.0,'11111222,11111222,99999999' 
ADCP,ioos:station:wmo:42890:1,2013-03-01T13:49:00Z,27.6250,-90.4410,15.2,151.0,21.2,-9999.0,'11111222,11111222,99999999' 
ADCP,ioos:station:wmo:42890:1,2013-03-01T14:09:00Z,27.6250,-90.4410,15.2,147.0,21.3,-9999.0,'11111222,11111222,99999999' 
ADCP,ioos:station:wmo:42890:1,2013-03-01T14:29:00Z,27.6250,-90.4410,15.2,160.0,22.1,-9999.0,'11111222,11111222,99999999' 
ADCP,ioos:station:wmo:42890:1,2013-03-01T14:49:00Z,27.6250,-90.4410,15.2,153.0,19.5,-9999.0,'11111222,11111222,99999999' 
ADCP,ioos:station:wmo:42890:1,2013-03-01T15:09:00Z,27.6250,-90.4410,15.2,137.0,18.5,-9999.0,'11111222,11111222,99999999' 
ADCP,ioos:station:wmo:42890:1,2013-03-01T15:29:00Z,27.6250,-90.4410,15.2,161.0,15.9,-9999.0,'11111222,11111222,99999999' 
ADCP,ioos:station:wmo:42890:1,2013-03-01T15:49:00Z,27.6250,-90.4410,15.2,179.0,20.4,-9999.0,'11111222,11111222,99999999' 
ADCP,ioos:station:wmo:42890:1,2013-03-01T16:09:00Z,27.6250,-90.4410,15.2,171.0,19.4,-9999.0,'11111222,11111222,99999999' 
ADCP,ioos:station:wmo:42890:1,2013-03-01T16:29:00Z,27.6250,-90.4410,15.2,158.0,21.0,-9999.0,'11111222,11111222,99999999' 
ADCP,ioos:station:wmo:42890:1,2013-03-01T16:49:00Z,27.6250,-90.4410,15.2,154.0,22.3,-9999.0,'11111222,11111222,99999999' 
ADCP,ioos:station:wmo:42890:1,2013-03-01T17:09:00Z,27.6250,-90.4410,15.2,152.0,22.5,-9999.0,'11111222,11111222,99999999' 
ADCP,ioos:station:wmo:42890:1,2013-03-01T17:29:00Z,27.6250,-90.4410,15.2,167.0,21.6,-9999.0,'11111222,11111222,99999999' 
ADCP,ioos:station:wmo:42890:1,2013-03-01T17:49:00Z,27.6250,-90.4410,15.2,162.0,23.2,-9999.0,'11111222,11111222,99999999' 
ADCP,ioos:station:wmo:42890:1,2013-03-01T18:09:00Z,27.6250,-90.4410,15.2,170.0,26.7,-9999.0,'11111222,11111222,99999999' 
ADCP,ioos:station:wmo:42890:1,2013-03-01T18:29:00Z,27.6250,-90.4410,15.2,175.0,28.9,-9999.0,'11111222,11111222,99999999' 
ADCP,ioos:station:wmo:42890:1,2013-03-01T18:49:00Z,27.6250,-90.4410,15.2,166.0,27.8,-9999.0,'11111222,11111222,99999999' 
ADCP,ioos:station:wmo:42890:1,2013-03-01T19:09:00Z,27.6250,-90.4410,15.2,159.0,21.2,-9999.0,'11111222,11111222,99999999' 
ADCP,ioos:station:wmo:42890:1,2013-03-01T19:29:00Z,27.6250,-90.4410,15.2,145.0,19.4,-9999.0,'11111222,11111222,99999999' 
ADCP,ioos:station:wmo:42890:1,2013-03-01T19:49:00Z,27.6250,-90.4410,15.2,142.0,20.3,-9999.0,'11111222,11111222,99999999' 
ADCP,ioos:station:wmo:42890:1,2013-03-01T20:09:00Z,27.6250,-90.4410,15.2,156.0,21.4,-9999.0,'11111222,11111222,99999999' 
ADCP,ioos:station:wmo:42890:1,2013-03-01T20:29:00Z,27.6250,-90.4410,15.2,155.0,17.3,-9999.0,'11111222,11111222,99999999' 
ADCP,ioos:station:wmo:42890:1,2013-03-01T20:49:00Z,27.6250,-90.4410,15.2,195.0,22.8,-9999.0,'11111222,11111222,99999999' 
ADCP,ioos:station:wmo:42890:1,2013-03-01T21:09:00Z,27.6250,-90.4410,15.2,166.0,15.8,-9999.0,'11111222,11111222,99999999' 
ADCP,ioos:station:wmo:42890:1,2013-03-01T21:29:00Z,27.6250,-90.4410,15.2,190.0,21.5,-9999.0,'11111222,11111222,99999999' 
ADCP,ioos:station:wmo:42890:1,2013-03-01T21:49:00Z,27.6250,-90.4410,15.2,176.0,19.1,-9999.0,'11111222,11111222,99999999' 
ADCP,ioos:station:wmo:42890:1,2013-03-01T22:09:00Z,27.6250,-90.4410,15.2,163.0,20.6,-9999.0,'11111222,11111222,99999999' 
ADCP,ioos:station:wmo:42890:1,2013-03-01T22:29:00Z,27.6250,-90.4410,15.2,173.0,15.6,-9999.0,'11111222,11111222,99999999' 
ADCP,ioos:station:wmo:42890:1,2013-03-01T22:49:00Z,27.6250,-90.4410,15.2,168.0,14.0,-9999.0,'11111222,11111222,99999999' 
ADCP,ioos:station:wmo:42890:1,2013-03-01T23:09:00Z,27.6250,-90.4410,15.2,162.0,15.1,-9999.0,'11111222,11111222,99999999' 
ADCP,ioos:station:wmo:42890:1,2013-03-01T23:29:00Z,27.6250,-90.4410,15.2,180.0,18.6,-9999.0,'11111222,11111222,99999999' 
ADCP,ioos:station:wmo:42890:1,2013-03-01T23:49:00Z,27.6250,-90.4410,15.2,178.0,18.6,-9999.0,'11111222,11111222,99999999' 
ADCP,ioos:station:wmo:42890:1,2013-03-02T00:09:00Z,27.6250,-90.4410,15.2,174.0,15.8,-9999.0,'11111222,11111222,99999999' 
ADCP,ioos:station:wmo:42890:1,2013-03-02T00:29:00Z,27.6250,-90.4410,15.2,177.0,15.9,-9999.0,'11111222,11111222,99999999' 
ADCP,ioos:station:wmo:42890:1,2013-03-02T00:49:00Z,27.6250,-90.4410,15.2,188.0,13.2,-9999.0,'11111222,11111222,99999999' 
ADCP,ioos:station:wmo:42890:1,2013-03-02T01:09:00Z,27.6250,-90.4410,15.2,210.0,13.4,-9999.0,'11111222,11111222,99999999' 
ADCP,ioos:station:wmo:42890:1,2013-03-02T01:29:00Z,27.6250,-90.4410,15.2,208.0,13.9,-9999.0,'11111222,11111222,99999999' 
ADCP,ioos:station:wmo:42890:1,2013-03-02T01:49:00Z,27.6250,-90.4410,15.2,193.0,10.9,-9999.0,'11111222,11111222,99999999' 
ADCP,ioos:station:wmo:42890:1,2013-03-02T02:09:00Z,27.6250,-90.4410,15.2,194.0,15.1,-9999.0,'11111222,11111222,99999999' 
ADCP,ioos:station:wmo:42890:1,2013-03-02T02:29:00Z,27.6250,-90.4410,15.2,207.0,20.1,-9999.0,'11111222,11111222,99999999' 
ADCP,ioos:station:wmo:42890:1,2013-03-02T02:49:00Z,27.6250,-90.4410,15.2,196.0,18.4,-9999.0,'11111222,11111222,99999999' 
ADCP,ioos:station:wmo:42890:1,2013-03-02T03:09:00Z,27.6250,-90.4410,15.2,159.0,15.3,-9999.0,'11111222,11111222,99999999' 
ADCP,ioos:station:wmo:42890:1,2013-03-02T03:29:00Z,27.6250,-90.4410,15.2,192.0,17.5,-9999.0,'11111222,11111222,99999999' 
ADCP,ioos:station:wmo:42890:1,2013-03-02T03:49:00Z,27.6250,-90.4410,15.2,144.0,16.7,-9999.0,'11111222,11111222,99999999' 
ADCP,ioos:station:wmo:42890:1,2013-03-02T04:09:00Z,27.6250,-90.4410,15.2,161.0,15.9,-9999.0,'11111222,11111222,99999999' 
ADCP,ioos:station:wmo:42890:1,2013-03-02T04:29:00Z,27.6250,-90.4410,15.2,158.0,16.3,-9999.0,'11111222,11111222,99999999' 
ADCP,ioos:station:wmo:42890:1,2013-03-02T04:49:00Z,27.6250,-90.4410,15.2,147.0,15.6,-9999.0,'11111222,11111222,99999999' 
ADCP,ioos:station:wmo:42890:1,2013-03-02T05:09:00Z,27.6250,-90.4410,15.2,150.0,16.0,-9999.0,'11111222,11111222,99999999' 
ADCP,ioos:station:wmo:42890:1,2013-03-02T05:29:00Z,27.6250,-90.4410,15.2,132.0,15.9,-9999.0,'11111222,11111222,99999999' 
ADCP,ioos:station:wmo:42890:1,2013-03-02T05:49:00Z,27.6250,-90.4410,15.2,163.0,14.1,-9999.0,'11111222,11111222,99999999' 
ADCP,ioos:station:wmo:42890:1,2013-03-02T06:09:00Z,27.6250,-90.4410,15.2,163.0,18.5,-9999.0,'11111222,11111222,99999999' 
ADCP,ioos:station:wmo:42890:1,2013-03-02T06:29:00Z,27.6250,-90.4410,15.2,164.0,18.7,-9999.0,'11111222,11111222,99999999' 
ADCP,ioos:station:wmo:42890:1,2013-03-02T06:49:00Z,27.6250,-90.4410,15.2,147.0,16.4,-9999.0,'11111222,11111222,99999999' 
ADCP,ioos:station:wmo:42890:1,2013-03-02T07:09:00Z,27.6250,-90.4410,15.2,189.0,24.3,-9999.0,'11111222,11111222,99999999' 
ADCP,ioos:station:wmo:42890:1,2013-03-02T07:29:00Z,27.6250,-90.4410,15.2,169.0,22.6,-9999.0,'11111222,11111222,99999999' 
ADCP,ioos:station:wmo:42890:1,2013-03-02T07:49:00Z,27.6250,-90.4410,15.2,136.0,28.4,-9999.0,'11111222,11111222,99999999' 
ADCP,ioos:station:wmo:42890:1,2013-03-02T08:09:00Z,27.6250,-90.4410,15.2,132.0,26.9,-9999.0,'11111222,11111222,99999999' 
ADCP,ioos:station:wmo:42890:1,2013-03-02T08:29:00Z,27.6250,-90.4410,15.2,121.0,25.9,-9999.0,'11111222,11111222,99999999' 
ADCP,ioos:station:wmo:42890:1,2013-03-02T08:49:00Z,27.6250,-90.4410,15.2,116.0,27.8,-9999.0,'11111222,11111222,99999999' 
ADCP,ioos:station:wmo:42890:1,2013-03-02T09:09:00Z,27.6250,-90.4410,15.2,118.0,23.8,-9999.0,'11111222,11111222,99999999' 
ADCP,ioos:station:wmo:42890:1,2013-03-02T09:29:00Z,27.6250,-90.4410,15.2,115.0,25.1,-9999.0,'11111222,11111222,99999999' 
ADCP,ioos:station:wmo:42890:1,2013-03-02T09:49:00Z,27.6250,-90.4410,15.2,117.0,25.2,-9999.0,'11111222,11111222,99999999' 
ADCP,ioos:station:wmo:42890:1,2013-03-02T10:09:00Z,27.6250,-90.4410,15.2,111.0,27.4,-9999.0,'11111222,11111222,99999999' 
ADCP,ioos:station:wmo:42890:1,2013-03-02T10:29:00Z,27.6250,-90.4410,15.2,113.0,26.8,-9999.0,'11111222,11111222,99999999' 
ADCP,ioos:station:wmo:42890:1,2013-03-02T10:49:00Z,27.6250,-90.4410,15.2,117.0,26.3,-9999.0,'11111222,11111222,99999999' 
ADCP,ioos:station:wmo:42890:1,2013-03-02T11:09:00Z,27.6250,-90.4410,15.2,135.0,25.0,-9999.0,'11111222,11111222,99999999' 
ADCP,ioos:station:wmo:42890:1,2013-03-02T11:29:00Z,27.6250,-90.4410,15.2,127.0,27.8,-9999.0,'11111222,11111222,99999999' 
ADCP,ioos:station:wmo:42890:1,2013-03-02T11:49:00Z,27.6250,-90.4410,15.2,134.0,27.2,-9999.0,'11111222,11111222,99999999' 
ADCP,ioos:station:wmo:42890:1,2013-03-02T12:09:00Z,27.6250,-90.4410,15.2,129.0,22.7,-9999.0,'11111222,11111222,99999999' 
ADCP,ioos:station:wmo:42890:1,2013-03-02T12:29:00Z,27.6250,-90.4410,15.2,129.0,24.7,-9999.0,'11111222,11111222,99999999' 
ADCP,ioos:station:wmo:42890:1,2013-03-02T12:49:00Z,27.6250,-90.4410,15.2,142.0,21.0,-9999.0,'11111222,11111222,99999999' 
ADCP,ioos:station:wmo:42890:1,2013-03-02T13:09:00Z,27.6250,-90.4410,15.2,150.0,20.9,-9999.0,'11111222,11111222,99999999' 
ADCP,ioos:station:wmo:42890:1,2013-03-02T13:29:00Z,27.6250,-90.4410,15.2,159.0,23.0,-9999.0,'11111222,11111222,99999999' 
ADCP,ioos:station:wmo:42890:1,2013-03-02T13:49:00Z,27.6250,-90.4410,15.2,148.0,20.2,-9999.0,'11111222,11111222,99999999' 
ADCP,ioos:station:wmo:42890:1,2013-03-02T14:09:00Z,27.6250,-90.4410,15.2,146.0,21.4,-9999.0,'11111222,11111222,99999999' 
ADCP,ioos:station:wmo:42890:1,2013-03-02T14:29:00Z,27.6250,-90.4410,15.2,136.0,25.5,-9999.0,'11111222,11111222,99999999' 
ADCP,ioos:station:wmo:42890:1,2013-03-02T14:49:00Z,27.6250,-90.4410,15.2,134.0,24.0,-9999.0,'11111222,11111222,99999999' 
ADCP,ioos:station:wmo:42890:1,2013-03-02T15:09:00Z,27.6250,-90.4410,15.2,131.0,24.6,-9999.0,'11111222,11111222,99999999' 
ADCP,ioos:station:wmo:42890:1,2013-03-02T15:29:00Z,27.6250,-90.4410,15.2,128.0,23.9,-9999.0,'11111222,11111222,99999999' 
ADCP,ioos:station:wmo:42890:1,2013-03-02T15:49:00Z,27.6250,-90.4410,15.2,133.0,26.0,-9999.0,'11111222,11111222,99999999' 
ADCP,ioos:station:wmo:42890:1,2013-03-02T16:09:00Z,27.6250,-90.4410,15.2,129.0,26.3,-9999.0,'11111222,11111222,99999999' 
ADCP,ioos:station:wmo:42890:1,2013-03-02T16:29:00Z,27.6250,-90.4410,15.2,130.0,24.7,-9999.0,'11111222,11111222,99999999' 
ADCP,ioos:station:wmo:42890:1,2013-03-02T16:49:00Z,27.6250,-90.4410,15.2,132.0,24.8,-9999.0,'11111222,11111222,99999999' 
ADCP,ioos:station:wmo:42890:1,2013-03-02T17:09:00Z,27.6250,-90.4410,15.2,131.0,26.6,-9999.0,'11111222,11111222,99999999' 
ADCP,ioos:station:wmo:42890:1,2013-03-02T17:29:00Z,27.6250,-90.4410,15.2,132.0,23.3,-9999.0,'11111222,11111222,99999999' 
ADCP,ioos:station:wmo:42890:1,2013-03-02T17:49:00Z,27.6250,-90.4410,15.2,137.0,24.8,-9999.0,'11111222,11111222,99999999' 
ADCP,ioos:station:wmo:42890:1,2013-03-02T18:09:00Z,27.6250,-90.4410,15.2,133.0,24.7,-9999.0,'11111222,11111222,99999999' 
ADCP,ioos:station:wmo:42890:1,2013-03-02T18:29:00Z,27.6250,-90.4410,15.2,133.0,22.2,-9999.0,'11111222,11111222,99999999' 
ADCP,ioos:station:wmo:42890:1,2013-03-02T18:49:00Z,27.6250,-90.4410,15.2,135.0,21.8,-9999.0,'11111222,11111222,99999999' 
ADCP,ioos:station:wmo:42890:1,2013-03-02T19:09:00Z,27.6250,-90.4410,15.2,141.0,21.7,-9999.0,'11111222,11111222,99999999' 
ADCP,ioos:station:wmo:42890:1,2013-03-02T19:29:00Z,27.6250,-90.4410,15.2,136.0,21.8,-9999.0,'11111222,11111222,99999999' 
ADCP,ioos:station:wmo:42890:1,2013-03-02T19:49:00Z,27.6250,-90.4410,15.2,138.0,21.5,-9999.0,'11111222,11111222,99999999' 
ADCP,ioos:station:wmo:42890:1,2013-03-02T20:09:00Z,27.6250,-90.4410,15.2,141.0,21.2,-9999.0,'11111222,11111222,99999999' 
ADCP,ioos:station:wmo:42890:1,2013-03-02T20:29:00Z,27.6250,-90.4410,15.2,153.0,19.7,-9999.0,'11111222,11111222,99999999' 
ADCP,ioos:station:wmo:42890:1,2013-03-02T20:49:00Z,27.6250,-90.4410,15.2,158.0,17.4,-9999.0,'11111222,11111222,99999999' 
ADCP,ioos:station:wmo:42890:1,2013-03-02T21:09:00Z,27.6250,-90.4410,15.2,157.0,19.7,-9999.0,'11111222,11111222,99999999' 
ADCP,ioos:station:wmo:42890:1,2013-03-02T21:29:00Z,27.6250,-90.4410,15.2,158.0,19.1,-9999.0,'11111222,11111222,99999999' 
ADCP,ioos:station:wmo:42890:1,2013-03-02T21:49:00Z,27.6250,-90.4410,15.2,152.0,18.9,-9999.0,'11111222,11111222,99999999' 
ADCP,ioos:station:wmo:42890:1,2013-03-02T22:09:00Z,27.6250,-90.4410,15.2,162.0,18.6,-9999.0,'11111222,11111222,99999999' 
ADCP,ioos:station:wmo:42890:1,2013-03-02T22:29:00Z,27.6250,-90.4410,15.2,177.0,16.8,-9999.0,'11111222,11111222,99999999' 
ADCP,ioos:station:wmo:42890:1,2013-03-02T22:49:00Z,27.6250,-90.4410,15.2,167.0,17.6,-9999.0,'11111222,11111222,99999999' 
ADCP,ioos:station:wmo:42890:1,2013-03-02T23:09:00Z,27.6250,-90.4410,15.2,159.0,18.2,-9999.0,'11111222,11111222,99999999' 
ADCP,ioos:station:wmo:42890:1,2013-03-02T23:29:00Z,27.6250,-90.4410,15.2,172.0,18.1,-9999.0,'11111222,11111222,99999999' 
ADCP,ioos:station:wmo:42890:1,2013-03-02T23:49:00Z,27.6250,-90.4410,15.2,174.0,17.6,-9999.0,'11111222,11111222,99999999' 
ADCP,ioos:station:wmo:42890:1,2013-03-03T00:09:00Z,27.6250,-90.4410,15.2,175.0,16.4,-9999.0,'11111222,11111222,99999999' 
ADCP,ioos:station:wmo:42890:1,2013-03-03T00:29:00Z,27.6250,-90.4410,15.2,190.0,17.4,-9999.0,'11111222,11111222,99999999' 
ADCP,ioos:station:wmo:42890:1,2013-03-03T00:49:00Z,27.6250,-90.4410,15.2,182.0,18.8,-9999.0,'11111222,11111222,99999999' 
ADCP,ioos:station:wmo:42890:1,2013-03-03T01:09:00Z,27.6250,-90.4410,15.2,181.0,18.0,-9999.0,'11111222,11111222,99999999' 
ADCP,ioos:station:wmo:42890:1,2013-03-03T01:29:00Z,27.6250,-90.4410,15.2,183.0,18.1,-9999.0,'11111222,11111222,99999999' 
ADCP,ioos:station:wmo:42890:1,2013-03-03T01:49:00Z,27.6250,-90.4410,15.2,204.0,16.8,-9999.0,'11111222,11111222,99999999' 
ADCP,ioos:station:wmo:42890:1,2013-03-03T02:09:00Z,27.6250,-90.4410,15.2,168.0,16.2,-9999.0,'11111222,11111222,99999999' 
ADCP,ioos:station:wmo:42890:1,2013-03-03T02:29:00Z,27.6250,-90.4410,15.2,171.0,18.2,-9999.0,'11111222,11111222,99999999' 
ADCP,ioos:station:wmo:42890:1,2013-03-03T02:49:00Z,27.6250,-90.4410,15.2,202.0,17.0,-9999.0,'11111222,11111222,99999999' 
ADCP,ioos:station:wmo:42890:1,2013-03-03T03:09:00Z,27.6250,-90.4410,15.2,217.0,19.9,-9999.0,'11111222,11111222,99999999' 
ADCP,ioos:station:wmo:42890:1,2013-03-03T03:29:00Z,27.6250,-90.4410,15.2,217.0,17.8,-9999.0,'11111222,11111222,99999999' 
ADCP,ioos:station:wmo:42890:1,2013-03-03T03:49:00Z,27.6250,-90.4410,15.2,219.0,18.6,-9999.0,'11111222,11111222,99999999' 
ADCP,ioos:station:wmo:42890:1,2013-03-03T04:09:00Z,27.6250,-90.4410,15.2,222.0,19.1,-9999.0,'11111222,11111222,99999999' 
ADCP,ioos:station:wmo:42890:1,2013-03-03T04:29:00Z,27.6250,-90.4410,15.2,218.0,17.5,-9999.0,'11111222,11111222,99999999' 
ADCP,ioos:station:wmo:42890:1,2013-03-03T04:49:00Z,27.6250,-90.4410,15.2,224.0,17.4,-9999.0,'11111222,11111222,99999999' 
ADCP,ioos:station:wmo:42890:1,2013-03-03T05:09:00Z,27.6250,-90.4410,15.2,225.0,18.6,-9999.0,'11111222,11111222,99999999' 
ADCP,ioos:station:wmo:42890:1,2013-03-03T05:29:00Z,27.6250,-90.4410,15.2,218.0,17.3,-9999.0,'11111222,11111222,99999999' 
ADCP,ioos:station:wmo:42890:1,2013-03-03T05:49:00Z,27.6250,-90.4410,15.2,221.0,18.2,-9999.0,'11111222,11111222,99999999' 
ADCP,ioos:station:wmo:42890:1,2013-03-03T06:09:00Z,27.6250,-90.4410,15.2,215.0,19.5,-9999.0,'11111222,11111222,99999999' 
ADCP,ioos:station:wmo:42890:1,2013-03-03T06:29:00Z,27.6250,-90.4410,15.2,212.0,16.9,-9999.0,'11111222,11111222,99999999' 
ADCP,ioos:station:wmo:42890:1,2013-03-03T06:49:00Z,27.6250,-90.4410,15.2,217.0,17.1,-9999.0,'11111222,11111222,99999999' 
ADCP,ioos:station:wmo:42890:1,2013-03-03T07:09:00Z,27.6250,-90.4410,15.2,220.0,15.2,-9999.0,'11111222,11111222,99999999' 
ADCP,ioos:station:wmo:42890:1,2013-03-03T07:29:00Z,27.6250,-90.4410,15.2,222.0,14.6,-9999.0,'11111222,11111222,99999999' 
ADCP,ioos:station:wmo:42890:1,2013-03-03T07:49:00Z,27.6250,-90.4410,15.2,220.0,14.1,-9999.0,'11111222,11111222,99999999' 
ADCP,ioos:station:wmo:42890:1,2013-03-03T08:09:00Z,27.6250,-90.4410,15.2,210.0,12.2,-9999.0,'11111222,11111222,99999999' 
ADCP,ioos:station:wmo:42890:1,2013-03-03T08:29:00Z,27.6250,-90.4410,15.2,215.0,11.3,-9999.0,'11111222,11111222,99999999' 
ADCP,ioos:station:wmo:42890:1,2013-03-03T08:49:00Z,27.6250,-90.4410,15.2,221.0,11.7,-9999.0,'11111222,11111222,99999999' 
ADCP,ioos:station:wmo:42890:1,2013-03-03T09:09:00Z,27.6250,-90.4410,15.2,224.0,13.4,-9999.0,'11111222,11111222,99999999' 
ADCP,ioos:station:wmo:42890:1,2013-03-03T09:29:00Z,27.6250,-90.4410,15.2,218.0,13.4,-9999.0,'11111222,11111222,99999999' 
ADCP,ioos:station:wmo:42890:1,2013-03-03T09:49:00Z,27.6250,-90.4410,15.2,207.0,7.7,-9999.0,'11133222,11111222,99999999' 
ADCP,ioos:station:wmo:42890:1,2013-03-03T10:09:00Z,27.6250,-90.4410,15.2,234.0,11.4,-9999.0,'11111222,11111222,99999999' 
ADCP,ioos:station:wmo:42890:1,2013-03-03T10:29:00Z,27.6250,-90.4410,15.2,189.0,8.5,-9999.0,'11133222,11111222,99999999' 
ADCP,ioos:station:wmo:42890:1,2013-03-03T10:49:00Z,27.6250,-90.4410,15.2,220.0,10.4,-9999.0,'11111222,11111222,99999999' 
ADCP,ioos:station:wmo:42890:1,2013-03-03T11:09:00Z,27.6250,-90.4410,15.2,187.0,8.1,-9999.0,'11133222,11111222,99999999' 
ADCP,ioos:station:wmo:42890:1,2013-03-03T11:29:00Z,27.6250,-90.4410,15.2,221.0,9.8,-9999.0,'11133222,11111222,99999999' 
ADCP,ioos:station:wmo:42890:1,2013-03-03T11:49:00Z,27.6250,-90.4410,15.2,190.0,8.9,-9999.0,'11133222,11111222,99999999' 
ADCP,ioos:station:wmo:42890:1,2013-03-03T12:09:00Z,27.6250,-90.4410,15.2,191.0,11.1,-9999.0,'11111222,11111222,99999999' 
ADCP,ioos:station:wmo:42890:1,2013-03-03T12:29:00Z,27.6250,-90.4410,15.2,167.0,14.8,-9999.0,'11111222,11111222,99999999' 
ADCP,ioos:station:wmo:42890:1,2013-03-03T12:49:00Z,27.6250,-90.4410,15.2,132.0,15.2,-9999.0,'11111222,11111222,99999999' 
ADCP,ioos:station:wmo:42890:1,2013-03-03T13:09:00Z,27.6250,-90.4410,15.2,171.0,6.4,-9999.0,'11133222,11111222,99999999' 
ADCP,ioos:station:wmo:42890:1,2013-03-03T13:29:00Z,27.6250,-90.4410,15.2,133.0,9.0,-9999.0,'11133222,11111222,99999999' 
ADCP,ioos:station:wmo:42890:1,2013-03-03T13:49:00Z,27.6250,-90.4410,15.2,121.0,11.5,-9999.0,'11111222,11111222,99999999' 
ADCP,ioos:station:wmo:42890:1,2013-03-03T14:09:00Z,27.6250,-90.4410,15.2,126.0,11.2,-9999.0,'11111222,11111222,99999999' 
ADCP,ioos:station:wmo:42890:1,2013-03-03T14:29:00Z,27.6250,-90.4410,15.2,115.0,12.7,-9999.0,'11111222,11111222,99999999' 
ADCP,ioos:station:wmo:42890:1,2013-03-03T14:49:00Z,27.6250,-90.4410,15.2,148.0,12.7,-9999.0,'11111222,11111222,99999999' 
ADCP,ioos:station:wmo:42890:1,2013-03-03T15:09:00Z,27.6250,-90.4410,15.2,161.0,14.5,-9999.0,'11111222,11111222,99999999' 
ADCP,ioos:station:wmo:42890:1,2013-03-03T15:29:00Z,27.6250,-90.4410,15.2,159.0,13.8,-9999.0,'11111222,11111222,99999999' 
ADCP,ioos:station:wmo:42890:1,2013-03-03T15:49:00Z,27.6250,-90.4410,15.2,161.0,12.7,-9999.0,'11111222,11111222,99999999' 
ADCP,ioos:station:wmo:42890:1,2013-03-03T16:09:00Z,27.6250,-90.4410,15.2,155.0,13.5,-9999.0,'11111222,11111222,99999999' 
ADCP,ioos:station:wmo:42890:1,2013-03-03T16:29:00Z,27.6250,-90.4410,15.2,162.0,13.5,-9999.0,'11111222,11111222,99999999' 
ADCP,ioos:station:wmo:42890:1,2013-03-03T16:49:00Z,27.6250,-90.4410,15.2,172.0,14.1,-9999.0,'11111222,11111222,99999999' 